Flag for Germany Weather past 2 weeks in Schwäbisch Hall, Baden-Württemberg, Germany

Now
59 °F

Overcast.


Feels Like: 59 °F
Forecast: 51 / 69 °F
Wind: 2 mph from Northwest

Location: Oehringen

Current Time: Sep 2, 2014 at 12:02:06 PM

Latest Report: Sep 2, 2014 at 11:00 AM


Visibility: 6 mi

Pressure: 30.16 "Hg

Humidity: 77%

Dew point: 52 °F

Location of Schwäbisch HallLocation

Historic Weather in Schwäbisch Hall — Graph

°F

Schwäbisch Hall temperature yesterday

Maximum temperature yesterday: 62 °F (at 5:00 PM)
Minimum temperature yesterday: 51 °F (at 7:00 AM)
Average temperature yesterday: 56 °F

Past Weeks' High & Low Weather Summary

 TemperatureHumidityPressure
High75 °F (Aug 28, 5:00 PM)98% (Aug 31, 11:00 AM)30.17 "Hg (Aug 31, 11:00 AM)
Low48 °F (Aug 20, 7:00 AM)34% (Aug 22, 6:00 PM)29.67 "Hg (Aug 26, 8:00 AM)
Average59 °F76%30.00 "Hg
* Reported Aug 18 11:00 AM — Sep 2 11:00 AM, Schwäbisch Hall, Weather by CustomWeather, © 2014

Note: Actual official high and low records may vary slightly from our data, if they occured in-between our weather recording intervals... More about our weather records

Advertising

Schwäbisch Hall weather history for previous 24 hours

 ConditionsComfort  
Time TempWeatherWind HumidityBarometerVisibility
11:00 AM
Sep 2
59 °FOvercast.2 mph77%30.16 "Hg6 mi
10:00 AM59 °FLow clouds.2 mph83%30.15 "Hg6 mi
9:00 AM56 °FOvercast.1 mph90%30.15 "Hg5 mi
8:00 AM54 °FOvercast.1 mph93%30.15 "Hg5 mi
7:00 AM53 °FOvercast.1 mph95%30.15 "Hg5 mi
6:00 AM53 °FOvercast.1 mph94%30.15 "Hg5 mi
5:00 AM53 °FOvercast.1 mph94%30.15 "Hg6 mi
4:00 AM53 °FOvercast.1 mph94%30.15 "Hg6 mi
3:00 AM53 °FOvercast.1 mph93%30.16 "Hg6 mi
2:00 AM54 °FOvercast.1 mph94%30.16 "Hg6 mi
1:00 AM54 °FOvercast.1 mph93%30.16 "Hg6 mi
12:00 AM55 °FPassing clouds.1 mph92%30.16 "Hg7 mi
11:00 PM
Sep 1
57 °FOvercast.1 mph88%30.17 "Hg10 mi
10:00 PM58 °FOvercast.1 mph87%30.17 "Hg11 mi
9:00 PM59 °FOvercast.1 mph82%30.16 "Hg13 mi
8:00 PM59 °FOvercast.2 mph79%30.15 "Hg12 mi
7:00 PM60 °FOvercast.2 mph76%30.14 "Hg14 mi
6:00 PM61 °FOvercast.3 mph73%30.14 "Hg17 mi
5:00 PM62 °FOvercast.3 mph69%30.14 "Hg16 mi
4:00 PM61 °FOvercast.3 mph71%30.14 "Hg15 mi
3:00 PM60 °FOvercast.3 mph71%30.14 "Hg17 mi
2:00 PM61 °FOvercast.1 mph67%30.14 "Hg17 mi
1:00 PM60 °FOvercast.2 mph72%30.14 "Hg11 mi
12:00 PM58 °FOvercast.2 mph78%30.14 "Hg8 mi
Weather by CustomWeather, © 2014

See weather overviewHow to use our weather pages